Regional Weather Roundup
Issued by NWS Sterling, VA

Home | Current Version | Previous Version | Graphics & Text | Print | Product List | Glossary On
Versions: 1 2 3 4 5 6 7 8 9 10 11 12 13 14 15 16 17 18 19 20 21 22 23 24 25 26 27 28 29 30 31 32 33 34 35 36 37 38 39 40 41 42 43 44 45 46 47 48 49 50
000
ASUS41 KLWX 082010
RWRLWX

REGIONAL WEATHER ROUNDUP
NATIONAL WEATHER SERVICE BALTIMORE MD/WASHINGTON DC
300 PM EST MON FEB 08 2016

Note: "FAIR" indicates few or no clouds below 12,000 feet
with no significant weather and/or obstructions to visibility.
 TC=TEMPERATURE CELSIUS

 * =Non NWS site. Station does not report precipitation (e.g. rain,
    snow, etc.), thunder, or fog.

DCZ001-MDZ009-015-VAZ040>042-051-053>054-082100-
WASHINGTON METRO

CITY           SKY/WX    TMP DP  RH WIND       PRES   REMARKS
WASHINGTON NAT CLOUDY    46  29  51 S5        29.70S
DULLES         CLOUDY    46  25  43 VRB5      29.67F
ANDREWS AFB    PTSUNNY   45  29  53 S6        29.68S
FT BELVOIR     PTSUNNY   45  25  44 VRB2      29.69S
QUANTICO       PTSUNNY   45  29  53 S6        29.70F
COLLEGE PARK*  FAIR      46  30  53 S3        29.68F
LEESBURG*      PTSUNNY   46  30  53 S7        29.67F
MANASSAS*      MOSUNNY   46  25  42 S5        29.68F
GAITHERSBURG*  CLOUDY    45  27  49 CALM      29.71S

$$

MDZ006>007-011-014-082100-
BALTIMORE METRO

CITY           SKY/WX    TMP DP  RH WIND       PRES   REMARKS
BWI AIRPORT    PTSUNNY   45  28  51 CALM      29.69S
MD SCIENCE CTR   N/A     44  28  53 MISG      29.69F
MARTIN STATE   PTSUNNY   45  32  61 SE3       29.72F
ANNAPOLIS      MOSUNNY   42  31  64 SE8       29.70F
FORT MEADE*    PTSUNNY   45  28  53 CALM      29.71S

$$

MDZ012-015-019>023-082100-
MARYLAND EASTERN SHORE

CITY           SKY/WX    TMP DP  RH WIND       PRES   REMARKS
OCEAN CITY     CLOUDY    41  32  70 E10       29.72R
SALISBURY      CLOUDY    42  33  70 E3        29.71R
BAY BRIDGE AP*   N/A     41  28  60 CALM      29.71S
CAMBRIDGE*     CLOUDY    43  32  65 CALM      29.71R
EASTON*        CLOUDY    43  30  61 CALM      29.74F

$$

MDZ017>025-082100-
SOUTHERN MARYLAND

CITY           SKY/WX    TMP DP  RH WIND       PRES   REMARKS
PATUXENT RIVER CLOUDY    42  29  59 SE7       29.71R
ST INIGOES     CLOUDY    44  33  65 SE5       29.71R
LEONARDTOWN*   CLOUDY    43  30  61 E6        29.72S

$$

MDZ003>005-082100-
NORTH CENTRAL MARYLAND

CITY           SKY/WX    TMP DP  RH WIND       PRES   REMARKS
FREDERICK*     MOSUNNY   46  30  53 W5        29.69F
HAGERSTOWN APT CLOUDY    44  22  41 S8        29.64F
WESTMINSTER*   CLOUDY    43  34  70 CALM      29.66F

$$

MDZ501>502-082100-
WESTERN MARYLAND

CITY           SKY/WX    TMP DP  RH WIND       PRES   REMARKS
OAKLAND*       CLOUDY    34  27  75 S8        29.52S WCI  27
CUMBERLAND*    MOSUNNY   45  23  42 E5        29.64F

$$

VAZ025>031-082100-
SHENANDOAH VALLEY

CITY           SKY/WX    TMP DP  RH WIND       PRES   REMARKS
WINCHESTER*    CLOUDY    45  23  42 E6        29.63F
FRONT ROYAL*   MOCLDY    45  23  42 CALM      29.61F
LURAY*         FAIR      45  23  42 SW6       29.61F
NEW MARKET*    FAIR      46  25  42 SE7       29.60F
STAUNTON*      FAIR      49  25  39 SE10      29.61F
WAYNESBORO*    MOCLDY    45  21  39 S8        29.59F

$$

WVZ021-048>050-054>055-082100-
EASTERN WEST VIRGINIA PANHANDLE

CITY           SKY/WX    TMP DP  RH WIND       PRES   REMARKS
MARTINSBURG    PTSUNNY   43  23  45 SE5       29.65F
PETERSBURG*    CLOUDY    47  26  42 CALM      29.58F

$$

VAZ036>039-050-082100-
CENTRAL FOOTHILLS

CITY           SKY/WX    TMP DP  RH WIND       PRES   REMARKS
CHARLOTTESVILL FAIR      47  21  35 S10       29.64F
CULPEPER*      CLOUDY    45  23  42 S3        29.67F
ORANGE*        PTSUNNY   46  21  36 E3        29.67F
GORDONSVILLE*  MOCLDY    47  23  39 MISG      29.64F
WARRENTON*     PTSUNNY   46  29  49 CALM      29.66F

$$

VAZ055>057-082100-
NORTH AND CENTRAL PIEDMONT

CITY           SKY/WX    TMP DP  RH WIND       PRES   REMARKS
FREDERICKSBRG* FAIR      47  27  45 CALM      29.68F
STAFFORD*      CLOUDY    46  25  42 SE3       29.71F

$$

NCZ024-NYZ072-PAZ021-071-VAZ022-071-082100-
OTHER REGIONAL OBSERVATIONS

CITY           SKY/WX    TMP DP  RH WIND       PRES   REMARKS
NEW YORK CITY  CLOUDY    33  22  63 NE13G22   29.74F WCI  24
PHILADELPHIA   CLOUDY    43  25  49 E6        29.71F
PITTSBURGH     FLURRIES  37  34  89 S9        29.56F
ROANOKE        LGT RAIN  41  33  73 SW10      29.66R
RICHMOND       CLOUDY    47  26  44 S6        29.68F
RALEIGH        PTSUNNY   53  28  38 S10       29.66F

$$

ANZ530>537-082100-
MARINE OBSERVATIONS

STATION/POSITION TIME  TEMP    WIND        PRES
                       AIR SEA DIR/SP/G
                 (UTC) (F)     (DEG/KT/KT) (MB)
THOMAS PT LIGHT  2000   41 39  200/  2/  2 1006.8R
BALT KEY BRIDGE  1900   41     120/  3/  4 1006.0F
COVE POINT       1900   39      30/  7/  8 1006.6F
LEWISETTA        1900   41 41  110/  6/  7 1005.8F
SOLOMONS ISLAND  1900   41 42   90/  7/  7   N/A
PINEY POINT      1942          160/  7/  8   N/A

$$




USA.gov is the U.S. government's official web portal to all federal, state and local government web resources and services.